This is the latest recevied weather packets stored in our database for station/object N8QQQ. If no packets are shown the sender has not sent any weather packets the latest 10 day(s).
| Time | Temp. | Humidity | Pressure | Rain* | Wind** | Luminosity | Snow |
|---|---|---|---|---|---|---|---|
| 1778168752 | 3.89° C | 69% | 1010.4 hPa | 0 mm | - | 52 W/m² | - |
| 1778168449 | 3.89° C | 66% | 1010.4 hPa | 0 mm | - | 46 W/m² | - |
| 1778168146 | 4.44° C | 66% | 1010.5 hPa | 0 mm | - | 48 W/m² | - |
| 1778167842 | 4.44° C | 66% | 1010.4 hPa | 0 mm | - | 114 W/m² | - |
| 1778167538 | 4.44° C | 66% | 1010.4 hPa | 0 mm | - | 126 W/m² | - |
| 1778167235 | 4.44° C | 66% | 1010.4 hPa | 0 mm | - | 137 W/m² | - |
| 1778166930 | 4.44° C | 66% | 1010.6 hPa | 0 mm | - | 131 W/m² | - |
| 1778166622 | 4.44° C | 67% | 1010.4 hPa | 0 mm | - | 154 W/m² | - |
| 1778166319 | 4.44° C | 66% | 1010.5 hPa | 0 mm | - | 150 W/m² | - |
| 1778166016 | 4.44° C | 67% | 1010.5 hPa | 0 mm | - | 150 W/m² | - |
| 1778165710 | 3.89° C | 68% | 1010.6 hPa | 0 mm | - | 146 W/m² | - |
| 1778165409 | 3.89° C | 68% | 1010.6 hPa | 0 mm | - | 152 W/m² | - |
| 1778165105 | 3.89° C | 68% | 1010.6 hPa | 0 mm | - | 123 W/m² | - |
| 1778164803 | 3.89° C | 69% | 1010.6 hPa | 0 mm | - | 121 W/m² | - |
| 1778164500 | 3.89° C | 71% | 1010.7 hPa | 0 mm | - | 133 W/m² | - |
| 1778164196 | 3.89° C | 70% | 1010.6 hPa | 0 mm | - | 132 W/m² | - |
| 1778163892 | 3.33° C | 71% | 1010.8 hPa | 0 mm | - | 110 W/m² | - |
| 1778163590 | 3.33° C | 72% | 1010.7 hPa | 0 mm | - | 110 W/m² | - |
| 1778163285 | 3.33° C | 72% | 1010.9 hPa | 0 mm | - | 92 W/m² | - |
| 1778162982 | 3.33° C | 72% | 1010.8 hPa | 0 mm | - | 90 W/m² | - |
| 1778162679 | 3.33° C | 72% | 1010.8 hPa | 0 mm | - | 85 W/m² | - |
| 1778162377 | 2.78° C | 73% | 1010.8 hPa | 0 mm | - | 77 W/m² | - |
| 1778162073 | 2.78° C | 72% | 1010.7 hPa | 0 mm | - | 76 W/m² | - |
| 1778161771 | 3.33° C | 72% | 1010.8 hPa | 0 mm | - | 84 W/m² | - |
| 1778161467 | 3.33° C | 72% | 1010.8 hPa | 0 mm | - | 85 W/m² | - |
* Rain latest hour (hover to see other rain measurements)
** Current wind speed in m/s (hover to see current wind gust speed)